NOAA 16 DEB, 41307

Orbit data source: Space-Track

NOAA 16 DEB, 41307 is space debris in SSO originally from a launch on Thu, 21 Sep 2000 UTC launched from the Air Force Western Test Range (AFWTR). Debris objects in space refer to the collection of defunct objects orbiting the Earth. Examples of debris include non-operational satellites, rocket bodies, and fragments generated from explosions, collisions, or faulty payload assembly.

Loading next visibility...
Identifier
41307, 2000-055HK
Orbit
SSO
Country
Flag of USUS
Related business
Manufacturer
Unknown
Mission
Spacecraft
Bus & Motor
Unknown
Mass
Unknown
Launch date (UTC)
2000-09-21 (25 years ago)
Launch vehicle
Unknown
Launch site
Air Force Western Test Range (AFWTR)
Object type
Payload
Rocket body
Debris
Shape & HBR
Unknown
Radar Cross Section
Small (<0.1 m²)

Expand to show TLE details & history
Last TLE update: 4 days ago

TLE from 4 days ago
0 NOAA 16 DEB
1 41307U 00055HK  25257.41142068  .00021781  00000-0  35503-2 0  9999
2 41307  98.9151  61.2239 0008141 318.3604  41.6980 14.70962639504466
Epoch: 2025-09-14T09:52Z
TLE epoch observation values (Epoch: 2025-09-14T09:52:26.746Z)
Latitude
0.00004°
Longitude
-80.51836°
Altitude
656.698 km
Speed
7.531 km/s
True Right ascension
04h 04m 53s
True Declination
0° 00' 00"
Sunlit
Object was in daylight at epoch
Visualization orbit readout
Latitude
Unknown
Longitude
Unknown
Altitude
Unknown
Speed
Unknown
Apparent Right ascension
Unknown
Apparent Declination
Unknown
Sunlit
N/A
Visualization observer readout
Local Sidereal Time
17:31:22
Azimuth
Unknown
Elevation
Unknown
Doppler factor
Unknown
Orbital elements
Apogee altitude
660.823 km
Perigee altitude
649.372 km
Semi-major axis
7,033.235 km
Eccentricity
0.00081
Inclination
98.9151°
RAAN
61.2239°
Arg. of periapsis
318.3604°
True anomaly
41.7601°
Mean anomaly
41.698°
Eccentric anomaly
41.72905°
Mean motion
3.67968 °/min
Orbital period
97.83 mins
BSTAR
0.0035503
Loading maneuver chart data...
Computing Atmospheric mass density...
Loading historical data...
Loading historical data...
Loading historical data...
Loading historical data...
Loading historical data...
Loading historical data...
Loading historical data...

Documentation

Showing up to 5 results
|